Location: Chevoux
(46.3801°N, 4.9476°E)
Time: 16:31:08
(UTC+00:00)

Cosmos 2278 Rocket - Pass Details

Date: 28 January 2021
Orbit: 840 x 847 km, 71.0° (Epoch: 28 February)

Event Time Altitude Azimuth Distance (km) Brightness Sun altitude
Rises 18:03:50 0° 198° (SSW) 3,388 5.8 -14.7°
Reaches altitude 10° 18:06:16 10° 197° (SSW) 2,458 5.0 -15.1°
Maximum altitude 18:11:53 74° 113° (ESE) 882 2.1 -16.1°
Enters shadow 18:17:17 11° 30° (NNE) 2,374 4.2 -17.0°
